Time,TemperatureF,DewpointF,PressureIn,WindDirection,WindDirectionDegrees,WindSpeedMPH,WindSpeedGustMPH,Humidity,HourlyPrecipIn,Conditions,Clouds,dailyrainin,SoftwareType,DateUTC
2013-06-02 00:01:00,43.0,33.0,-100.00,West,280,0.0,1.0,68,0.00,,,-99.99,,2013-06-02 06:01:00,
2013-06-02 00:12:00,42.0,33.0,-100.00,WSW,246,1.0,1.0,68,0.00,,,-99.99,,2013-06-02 06:12:00,
2013-06-02 00:21:00,42.0,33.0,-100.00,WSW,257,1.0,2.0,69,0.00,,,-99.99,,2013-06-02 06:21:00,
2013-06-02 00:31:00,42.0,33.0,-100.00,WSW,256,2.0,4.0,70,0.00,,,-99.99,,2013-06-02 06:31:00,
2013-06-02 00:42:00,-999.0,-99.9,-100.00,West,261,4.0,7.0,-999,-99.99,,,-99.99,,2013-06-02 06:42:00,
2013-06-02 00:51:00,41.0,33.0,-100.00,West,271,4.0,6.0,73,0.00,,,-99.99,,2013-06-02 06:51:00,
2013-06-02 01:01:00,41.0,34.0,-100.00,West,270,5.0,7.0,74,-99.99,,,-99.99,,2013-06-02 07:01:00,
2013-06-02 01:11:00,41.0,34.0,-100.00,West,263,6.0,7.0,73,0.00,,,-99.99,,2013-06-02 07:11:00,
2013-06-02 01:21:00,41.0,34.0,-100.00,West,260,6.0,8.0,73,0.00,,,-99.99,,2013-06-02 07:21:00,
2013-06-02 01:31:00,42.0,33.0,-100.00,WSW,257,7.0,8.0,73,0.00,,,-99.99,,2013-06-02 07:31:00,
2013-06-02 01:41:00,42.0,33.0,-100.00,WSW,251,7.0,8.0,72,0.00,,,-99.99,,2013-06-02 07:41:00,
2013-06-02 01:52:00,41.0,33.0,-100.00,West,263,6.0,8.0,73,0.00,,,-99.99,,2013-06-02 07:52:00,
2013-06-02 02:01:00,41.0,34.0,-100.00,West,261,6.0,7.0,74,0.00,,,-99.99,,2013-06-02 08:01:00,
2013-06-02 02:11:00,41.0,34.0,-100.00,West,270,5.0,7.0,74,0.00,,,-99.99,,2013-06-02 08:11:00,
2013-06-02 02:21:00,41.0,33.0,-100.00,West,268,6.0,8.0,73,0.00,,,-99.99,,2013-06-02 08:21:00,
2013-06-02 02:31:00,42.0,33.0,-100.00,West,264,7.0,8.0,73,0.00,,,-99.99,,2013-06-02 08:31:00,
2013-06-02 02:41:00,41.0,34.0,-100.00,West,265,6.0,9.0,74,0.00,,,-99.99,,2013-06-02 08:41:00,
2013-06-02 02:51:00,41.0,34.0,-100.00,West,265,6.0,8.0,74,0.00,,,-99.99,,2013-06-02 08:51:00,
2013-06-02 03:01:00,41.0,34.0,-100.00,West,271,6.0,8.0,74,0.00,,,-99.99,,2013-06-02 09:01:00,
2013-06-02 03:11:00,42.0,34.0,-100.00,West,260,6.0,7.0,73,0.00,,,-99.99,,2013-06-02 09:11:00,
2013-06-02 03:21:00,41.0,34.0,-100.00,West,261,6.0,7.0,74,0.00,,,-99.99,,2013-06-02 09:21:00,
2013-06-02 03:32:00,42.0,34.0,-100.00,West,261,6.0,9.0,74,0.00,,,-99.99,,2013-06-02 09:32:00,
2013-06-02 03:42:00,41.0,34.0,-100.00,WSW,257,7.0,9.0,74,0.00,,,-99.99,,2013-06-02 09:42:00,
2013-06-02 03:53:00,41.0,34.0,-100.00,West,267,6.0,9.0,74,0.00,,,-99.99,,2013-06-02 09:53:00,
2013-06-02 04:02:00,41.0,34.0,-100.00,West,268,6.0,8.0,75,0.00,,,-99.99,,2013-06-02 10:02:00,
2013-06-02 04:12:00,41.0,33.0,-100.00,West,263,6.0,8.0,74,0.00,,,-99.99,,2013-06-02 10:12:00,
2013-06-02 04:22:00,42.0,34.0,-100.00,West,268,6.0,8.0,73,0.00,,,-99.99,,2013-06-02 10:22:00,
2013-06-02 04:32:00,42.0,33.0,-100.00,WSW,256,6.0,7.0,72,0.00,,,-99.99,,2013-06-02 10:32:00,
2013-06-02 04:41:00,41.0,33.0,-100.00,WSW,258,6.0,7.0,73,0.00,,,-99.99,,2013-06-02 10:41:00,
2013-06-02 04:53:00,-999.0,-99.9,-100.00,WSW,253,6.0,8.0,-999,-99.99,,,-99.99,,2013-06-02 10:53:00,
2013-06-02 05:02:00,40.0,33.0,-100.00,West,268,5.0,7.0,74,0.00,,,-99.99,,2013-06-02 11:02:00,
2013-06-02 05:11:00,40.0,33.0,-100.00,West,270,4.0,6.0,74,0.00,,,-99.99,,2013-06-02 11:11:00,
2013-06-02 05:21:00,42.0,31.0,-100.00,West,265,6.0,7.0,67,0.00,,,-99.99,,2013-06-02 11:21:00,
2013-06-02 05:31:00,42.0,30.0,-100.00,WSW,248,5.0,7.0,63,0.00,,,-99.99,,2013-06-02 11:31:00,
2013-06-02 05:42:00,42.0,31.0,-100.00,WSW,254,5.0,7.0,65,0.00,,,-99.99,,2013-06-02 11:42:00,
2013-06-02 05:52:00,42.0,30.0,-100.00,West,265,0.0,0.0,64,0.00,,,-99.99,,2013-06-02 11:52:00,
2013-06-02 06:01:00,41.0,31.0,-100.00,West,275,0.0,0.0,66,0.00,,,-99.99,,2013-06-02 12:01:00,
2013-06-02 06:11:00,41.0,31.0,-100.00,WNW,282,0.0,0.0,67,0.00,,,-99.99,,2013-06-02 12:11:00,
2013-06-02 06:21:00,40.0,31.0,-100.00,West,281,2.0,6.0,69,0.00,,,-99.99,,2013-06-02 12:21:00,
2013-06-02 06:31:00,40.0,30.0,-100.00,West,277,4.0,6.0,68,0.00,,,-99.99,,2013-06-02 12:31:00,
2013-06-02 06:41:00,40.0,31.0,-100.00,West,275,3.0,4.0,68,0.00,,,-99.99,,2013-06-02 12:41:00,
2013-06-02 06:52:00,41.0,30.0,-100.00,WNW,289,3.0,6.0,64,0.00,,,-99.99,,2013-06-02 12:52:00,
2013-06-02 07:01:00,43.0,29.0,-100.00,WNW,282,1.0,5.0,58,0.00,,,-99.99,,2013-06-02 13:01:00,
2013-06-02 07:11:00,44.0,29.0,-100.00,WNW,285,0.0,4.0,57,0.00,,,-99.99,,2013-06-02 13:11:00,
2013-06-02 07:21:00,45.0,26.0,-100.00,WSW,247,1.0,2.0,46,0.00,,,-99.99,,2013-06-02 13:21:00,
2013-06-02 07:31:00,46.0,28.0,-100.00,West,261,2.0,4.0,50,0.00,,,-99.99,,2013-06-02 13:31:00,
2013-06-02 07:42:00,-999.0,-99.9,-100.00,West,263,1.0,2.0,-999,-99.99,,,-99.99,,2013-06-02 13:42:00,
2013-06-02 07:52:00,47.0,25.0,-100.00,West,271,1.0,2.0,42,0.00,,,-99.99,,2013-06-02 13:52:00,
2013-06-02 08:01:00,47.0,26.0,-100.00,West,260,2.0,3.0,43,0.00,,,-99.99,,2013-06-02 14:01:00,
2013-06-02 08:11:00,47.0,26.0,-100.00,West,280,2.0,3.0,43,0.00,,,-99.99,,2013-06-02 14:11:00,
2013-06-02 08:21:00,48.0,29.0,-100.00,West,274,2.0,4.0,46,0.00,,,-99.99,,2013-06-02 14:21:00,
2013-06-02 08:31:00,48.0,26.0,-100.00,West,272,2.0,4.0,41,0.00,,,-99.99,,2013-06-02 14:31:00,
2013-06-02 08:41:00,49.0,28.0,-100.00,WNW,288,2.0,5.0,44,0.00,,,-99.99,,2013-06-02 14:41:00,
2013-06-02 08:51:00,50.0,27.0,-100.00,WNW,294,3.0,6.0,42,0.00,,,-99.99,,2013-06-02 14:51:00,
2013-06-02 09:01:00,51.0,28.0,-100.00,WNW,298,3.0,6.0,42,0.00,,,-99.99,,2013-06-02 15:01:00,
2013-06-02 09:11:00,50.0,28.0,-100.00,WNW,302,3.0,6.0,42,0.00,,,-99.99,,2013-06-02 15:11:00,
2013-06-02 09:21:00,50.0,28.0,-100.00,NW,305,3.0,6.0,41,0.00,,,-99.99,,2013-06-02 15:21:00,
2013-06-02 09:32:00,51.0,29.0,-100.00,WNW,299,4.0,7.0,41,0.00,,,-99.99,,2013-06-02 15:32:00,
2013-06-02 09:42:00,52.0,31.0,-100.00,WNW,292,2.0,5.0,44,0.00,,,-99.99,,2013-06-02 15:42:00,
2013-06-02 09:53:00,53.0,27.0,-100.00,WNW,302,1.0,4.0,37,0.00,,,-99.99,,2013-06-02 15:53:00,
2013-06-02 10:03:00,53.0,30.0,-100.00,West,270,3.0,7.0,40,0.00,,,-99.99,,2013-06-02 16:03:00,
2013-06-02 10:12:00,54.0,28.0,-100.00,West,275,3.0,7.0,37,0.00,,,-99.99,,2013-06-02 16:12:00,
2013-06-02 10:22:00,54.0,29.0,-100.00,West,280,4.0,8.0,37,0.00,,,-99.99,,2013-06-02 16:22:00,
2013-06-02 10:32:00,54.0,29.0,-100.00,West,265,5.0,9.0,36,0.00,,,-99.99,,2013-06-02 16:32:00,
2013-06-02 10:42:00,54.0,28.0,-100.00,West,261,5.0,11.0,36,0.00,,,-99.99,,2013-06-02 16:42:00,
2013-06-02 10:53:00,-999.0,-99.9,-100.00,West,270,6.0,12.0,-999,-99.99,,,-99.99,,2013-06-02 16:53:00,
2013-06-02 11:02:00,55.0,26.0,-100.00,West,265,8.0,13.0,32,0.00,,,-99.99,,2013-06-02 17:02:00,
2013-06-02 11:12:00,57.0,29.0,-100.00,WSW,256,7.0,12.0,33,0.00,,,-99.99,,2013-06-02 17:12:00,
2013-06-02 11:22:00,53.0,34.0,-100.00,ESE,119,6.0,11.0,48,0.00,,,-99.99,,2013-06-02 17:22:00,
2013-06-02 11:32:00,53.0,33.0,-100.00,ENE,72,7.0,12.0,46,-99.99,,,-99.99,,2013-06-02 17:32:00,
2013-06-02 11:42:00,-999.0,-99.9,-100.00,East,93,11.0,16.0,-999,-99.99,,,-99.99,,2013-06-02 17:42:00,
2013-06-02 11:52:00,-999.0,-99.9,-100.00,East,90,12.0,16.0,-999,-99.99,,,-99.99,,2013-06-02 17:52:00,
2013-06-02 12:01:00,53.0,35.0,-100.00,East,83,12.0,16.0,50,-99.99,,,-99.99,,2013-06-02 18:01:00,
2013-06-02 12:12:00,-999.0,-99.9,-100.00,East,82,10.0,14.0,-999,-99.99,,,-99.99,,2013-06-02 18:12:00,
2013-06-02 12:21:00,53.0,38.0,-100.00,East,83,11.0,16.0,57,0.00,,,-99.99,,2013-06-02 18:21:00,
2013-06-02 12:32:00,-999.0,-99.9,-100.00,East,85,13.0,16.0,-999,-99.99,,,-99.99,,2013-06-02 18:32:00,
2013-06-02 12:41:00,51.0,38.0,-100.00,East,85,14.0,20.0,63,0.00,,,-99.99,,2013-06-02 18:41:00,
2013-06-02 12:52:00,51.0,38.0,-100.00,East,83,17.0,21.0,62,0.00,,,-99.99,,2013-06-02 18:52:00,
2013-06-02 13:01:00,51.0,39.0,-100.00,East,83,17.0,21.0,64,0.00,,,-99.99,,2013-06-02 19:01:00,
2013-06-02 13:11:00,-999.0,-99.9,-100.00,East,83,17.0,21.0,-999,-99.99,,,-99.99,,2013-06-02 19:11:00,
2013-06-02 13:21:00,51.0,39.0,-100.00,East,83,17.0,21.0,64,-99.99,,,-99.99,,2013-06-02 19:21:00,
2013-06-02 13:31:00,54.0,40.0,-100.00,East,80,17.0,21.0,59,0.00,,,-99.99,,2013-06-02 19:31:00,
2013-06-02 13:41:00,53.0,37.0,-100.00,East,83,17.0,23.0,54,0.00,,,-99.99,,2013-06-02 19:41:00,
2013-06-02 13:52:00,53.0,39.0,-100.00,East,82,17.0,22.0,58,0.00,,,-99.99,,2013-06-02 19:52:00,
2013-06-02 14:02:00,-999.0,-99.9,-100.00,East,86,18.0,24.0,-999,-99.99,,,-99.99,,2013-06-02 20:02:00,
2013-06-02 14:11:00,52.0,40.0,-100.00,East,80,19.0,23.0,66,0.00,,,-99.99,,2013-06-02 20:11:00,
2013-06-02 14:21:00,54.0,40.0,-100.00,ENE,78,17.0,22.0,60,0.00,,,-99.99,,2013-06-02 20:21:00,
2013-06-02 14:31:00,53.0,40.0,-100.00,East,83,18.0,22.0,63,0.00,,,-99.99,,2013-06-02 20:31:00,
2013-06-02 14:42:00,53.0,39.0,-100.00,East,80,19.0,24.0,61,0.00,,,-99.99,,2013-06-02 20:42:00,
2013-06-02 14:51:00,53.0,39.0,-100.00,East,80,20.0,24.0,58,0.00,,,-99.99,,2013-06-02 20:51:00,
2013-06-02 15:01:00,54.0,40.0,-100.00,East,79,20.0,26.0,61,0.00,,,-99.99,,2013-06-02 21:01:00,
2013-06-02 15:11:00,55.0,38.0,-100.00,ENE,78,21.0,28.0,54,0.00,,,-99.99,,2013-06-02 21:11:00,
2013-06-02 15:21:00,55.0,40.0,-100.00,East,79,24.0,30.0,57,0.00,,,-99.99,,2013-06-02 21:21:00,
2013-06-02 15:33:00,55.0,39.0,-100.00,East,83,23.0,31.0,55,0.00,,,-99.99,,2013-06-02 21:33:00,
2013-06-02 15:42:00,54.0,38.0,-100.00,ESE,104,14.0,24.0,54,0.00,,,-99.99,,2013-06-02 21:42:00,
2013-06-02 15:53:00,54.0,38.0,-100.00,East,92,17.0,21.0,54,0.00,,,-99.99,,2013-06-02 21:53:00,
2013-06-02 16:02:00,54.0,36.0,-100.00,East,82,16.0,25.0,49,0.00,,,-99.99,,2013-06-02 22:02:00,
2013-06-02 16:12:00,54.0,36.0,-100.00,East,92,18.0,27.0,51,0.00,,,-99.99,,2013-06-02 22:12:00,
2013-06-02 16:22:00,54.0,35.0,-100.00,East,88,14.0,19.0,47,0.00,,,-99.99,,2013-06-02 22:22:00,
2013-06-02 16:32:00,55.0,35.0,-100.00,East,79,12.0,17.0,47,0.00,,,-99.99,,2013-06-02 22:32:00,
2013-06-02 16:42:00,56.0,36.0,-100.00,East,80,12.0,17.0,48,0.00,,,-99.99,,2013-06-02 22:42:00,
2013-06-02 16:52:00,56.0,37.0,-100.00,NE,56,11.0,17.0,48,0.00,,,-99.99,,2013-06-02 22:52:00,
2013-06-02 17:02:00,55.0,38.0,-100.00,ENE,58,12.0,16.0,51,0.00,,,-99.99,,2013-06-02 23:02:00,
2013-06-02 17:12:00,55.0,36.0,-100.00,East,83,11.0,16.0,49,0.00,,,-99.99,,2013-06-02 23:12:00,
2013-06-02 17:22:00,58.0,31.0,-100.00,South,169,9.0,15.0,35,0.00,,,-99.99,,2013-06-02 23:22:00,
2013-06-02 17:31:00,58.0,30.0,-100.00,SW,226,6.0,14.0,33,0.00,,,-99.99,,2013-06-02 23:31:00,
2013-06-02 17:42:00,57.0,35.0,-100.00,WSW,246,1.0,6.0,42,0.00,,,-99.99,,2013-06-02 23:42:00,
2013-06-02 17:53:00,-999.0,-99.9,-100.00,SSE,168,1.0,11.0,-999,-99.99,,,-99.99,,2013-06-02 23:53:00,
2013-06-02 18:01:00,57.0,35.0,-100.00,South,172,4.0,14.0,43,0.00,,,-99.99,,2013-06-03 00:01:00,
2013-06-02 18:11:00,59.0,31.0,-100.00,West,261,9.0,16.0,34,0.00,,,-99.99,,2013-06-03 00:11:00,
2013-06-02 18:21:00,59.0,28.0,-100.00,WSW,244,11.0,22.0,31,0.00,,,-99.99,,2013-06-03 00:21:00,
2013-06-02 18:31:00,58.0,29.0,-100.00,WSW,253,12.0,22.0,32,0.00,,,-99.99,,2013-06-03 00:31:00,
2013-06-02 18:42:00,58.0,28.0,-100.00,WSW,247,14.0,25.0,32,0.00,,,-99.99,,2013-06-03 00:42:00,
2013-06-02 18:51:00,56.0,31.0,-100.00,SSW,199,13.0,24.0,39,0.00,,,-99.99,,2013-06-03 00:51:00,
2013-06-02 19:01:00,57.0,29.0,-100.00,ESE,121,6.0,17.0,35,0.00,,,-99.99,,2013-06-03 01:01:00,
2013-06-02 19:11:00,-999.0,-99.9,-100.00,ESE,102,1.0,6.0,-999,-99.99,,,-99.99,,2013-06-03 01:11:00,
2013-06-02 19:21:00,56.0,30.0,-100.00,ESE,104,3.0,7.0,37,0.00,,,-99.99,,2013-06-03 01:21:00,
2013-06-02 19:31:00,56.0,33.0,-100.00,ENE,71,1.0,7.0,42,0.00,,,-99.99,,2013-06-03 01:31:00,
2013-06-02 19:41:00,54.0,35.0,-100.00,ENE,58,2.0,8.0,46,0.00,,,-99.99,,2013-06-03 01:41:00,
2013-06-02 19:52:00,55.0,34.0,-100.00,NNE,28,0.0,0.0,44,0.00,,,-99.99,,2013-06-03 01:52:00,
2013-06-02 20:01:00,55.0,35.0,-100.00,South,184,1.0,10.0,46,0.00,,,-99.99,,2013-06-03 02:01:00,
2013-06-02 20:11:00,55.0,30.0,-100.00,South,178,11.0,22.0,38,0.00,,,-99.99,,2013-06-03 02:11:00,
2013-06-02 20:22:00,54.0,31.0,-100.00,South,189,14.0,26.0,41,0.00,,,-99.99,,2013-06-03 02:22:00,
2013-06-02 20:31:00,54.0,30.0,-100.00,South,184,11.0,18.0,40,0.00,,,-99.99,,2013-06-03 02:31:00,
2013-06-02 20:41:00,53.0,33.0,-100.00,SW,230,14.0,24.0,46,0.03,,,-99.99,,2013-06-03 02:41:00,
2013-06-02 20:51:00,52.0,34.0,-100.00,WSW,248,16.0,27.0,51,0.13,,,-99.99,,2013-06-03 02:51:00,
2013-06-02 21:01:00,49.0,36.0,-100.00,SW,226,15.0,27.0,60,0.14,,,-99.99,,2013-06-03 03:01:00,
2013-06-02 21:11:00,49.0,36.0,-100.00,WSW,239,9.0,21.0,60,0.00,,,-99.99,,2013-06-03 03:11:00,
2013-06-02 21:21:00,49.0,36.0,-100.00,SW,216,8.0,15.0,60,-99.99,,,-99.99,,2013-06-03 03:21:00,
2013-06-02 21:33:00,50.0,35.0,-100.00,South,179,9.0,21.0,56,0.00,,,-99.99,,2013-06-03 03:33:00,
2013-06-02 21:42:00,50.0,34.0,-100.00,South,181,9.0,21.0,55,0.00,,,-99.99,,2013-06-03 03:42:00,
2013-06-02 21:53:00,50.0,35.0,-100.00,WSW,243,15.0,22.0,56,0.00,,,-99.99,,2013-06-03 03:53:00,
2013-06-02 22:02:00,49.0,36.0,-100.00,WSW,258,13.0,22.0,61,0.00,,,-99.99,,2013-06-03 04:02:00,
2013-06-02 22:12:00,47.0,39.0,-100.00,West,261,19.0,29.0,73,0.21,,,-99.99,,2013-06-03 04:12:00,
2013-06-02 22:23:00,45.0,39.0,-100.00,West,261,17.0,29.0,77,0.01,,,-99.99,,2013-06-03 04:23:00,
2013-06-02 22:32:00,44.0,39.0,-100.00,West,260,19.0,28.0,81,0.07,,,-99.99,,2013-06-03 04:32:00,
2013-06-02 22:42:00,44.0,38.0,-100.00,WSW,254,17.0,23.0,80,0.00,,,-99.99,,2013-06-03 04:42:00,
2013-06-02 22:52:00,44.0,38.0,-100.00,WSW,257,17.0,26.0,79,0.00,,,-99.99,,2013-06-03 04:52:00,
2013-06-02 23:02:00,44.0,39.0,-100.00,West,268,12.0,22.0,85,0.16,,,-99.99,,2013-06-03 05:02:00,
2013-06-02 23:11:00,42.0,42.0,-100.00,West,267,11.0,18.0,98,0.10,,,-99.99,,2013-06-03 05:11:00,
2013-06-02 23:22:00,42.0,42.0,-100.00,West,265,9.0,13.0,100,0.28,,,-99.99,,2013-06-03 05:22:00,
2013-06-02 23:32:00,42.0,42.0,-100.00,WSW,251,9.0,14.0,100,0.16,,,-99.99,,2013-06-03 05:32:00,
2013-06-02 23:42:00,42.0,42.0,-100.00,West,260,10.0,15.0,100,0.07,,,-99.99,,2013-06-03 05:42:00,
2013-06-02 23:52:00,41.0,41.0,-100.00,West,260,11.0,15.0,100,0.11,,,-99.99,,2013-06-03 05:52:00,